| time (UTC) | temp F | wind direction | speed MPH | gust MPH | rain 1hr in | rain 24hr in | rain mn in | humidity % | barometer mb |
| 20260502233338 | 53 | 127 | 0.0 | 1.0 | 0.01 | 0.41 | 0.41 | 90 | 1013.4 |
| 20260502231828 | 54 | 127 | 0.0 | 0.0 | 0.01 | 0.41 | 0.41 | 90 | 1013.1 |
| 20260502230344 | 54 | 127 | 0.0 | 0.0 | 0.01 | 0.41 | 0.41 | 90 | 1013.2 |
| 20260502224829 | 54 | 127 | 0.0 | 0.0 | 0.01 | 0.41 | 0.41 | 90 | 1013.1 |
| 20260502223329 | 54 | 94 | 0.0 | 1.0 | 0.00 | 0.40 | 0.40 | 90 | 1013.1 |
| 20260502221845 | 54 | 94 | 0.0 | 2.0 | 0.00 | 0.40 | 0.40 | 90 | 1013.0 |
| 20260502220347 | 53 | 93 | 1.0 | 3.0 | 0.00 | 0.40 | 0.40 | 90 | 1013.0 |
| 20260502214823 | 53 | 350 | 0.0 | 1.0 | 0.00 | 0.40 | 0.40 | 90 | 1012.8 |
| 20260502213410 | 53 | 279 | 1.0 | 3.0 | 0.00 | 0.40 | 0.40 | 90 | 1012.9 |
| 20260502211839 | 53 | 344 | 2.0 | 4.0 | 0.00 | 0.40 | 0.40 | 90 | 1013.1 |
| 20260502210331 | 53 | 71 | 2.0 | 5.0 | 0.00 | 0.40 | 0.40 | 90 | 1012.9 |
| 20260502204829 | 53 | 80 | 2.0 | 6.0 | 0.00 | 0.40 | 0.40 | 89 | 1013.0 |
| 20260502203348 | 53 | 48 | 2.0 | 3.0 | 0.00 | 0.40 | 0.40 | 90 | 1013.0 |
| 20260502201847 | 53 | 119 | 1.0 | 4.0 | 0.01 | 0.40 | 0.40 | 90 | 1012.9 |
| 20260502200339 | 53 | 79 | 3.0 | 6.0 | 0.01 | 0.40 | 0.40 | 90 | 1013.1 |
| 20260502194831 | 53 | 70 | 2.0 | 6.0 | 0.01 | 0.40 | 0.40 | 90 | 1013.3 |
| 20260502193345 | 53 | 83 | 2.0 | 5.0 | 0.01 | 0.40 | 0.40 | 91 | 1013.3 |
| 20260502191846 | 52 | 34 | 2.0 | 4.0 | 0.01 | 0.39 | 0.39 | 90 | 1013.6 |
| 20260502190351 | 52 | 31 | 3.0 | 6.0 | 0.01 | 0.39 | 0.39 | 90 | 1013.6 |
| 20260502184855 | 52 | 55 | 3.0 | 9.0 | 0.02 | 0.42 | 0.39 | 90 | 1013.7 |
| 20260502183329 | 52 | 53 | 4.0 | 9.0 | 0.03 | 0.42 | 0.39 | 90 | 1013.7 |
| 20260502181828 | 52 | 65 | 3.0 | 6.0 | 0.02 | 0.41 | 0.38 | 90 | 1014.4 |
| 20260502180345 | 52 | 62 | 1.0 | 10.0 | 0.02 | 0.41 | 0.38 | 90 | 1013.8 |
| 20260502170329 | 52 | 14 | 3.0 | 10.0 | 0.07 | 0.39 | 0.36 | 90 | 1013.9 |
| 20260502163407 | 52 | 19 | 4.0 | 10.0 | 0.06 | 0.37 | 0.34 | 90 | 1015.0 |
| 20260502161857 | 52 | 67 | 1.0 | 4.0 | 0.04 | 0.34 | 0.31 | 90 | 1015.2 |
| 20260502160351 | 52 | 47 | 2.0 | 6.0 | 0.03 | 0.32 | 0.29 | 90 | 1015.2 |
| 20260502151849 | 52 | 73 | 5.0 | 9.0 | 0.06 | 0.30 | 0.27 | 90 | 1014.9 |
| 20260502150333 | 52 | 46 | 3.0 | 9.0 | 0.07 | 0.29 | 0.26 | 90 | 1015.3 |
| 20260502130329 | 53 | 22 | 1.0 | 5.0 | 0.05 | 0.18 | 0.15 | 89 | 1013.9 |
| 20260502123331 | 52 | 76 | 3.0 | 6.0 | 0.07 | 0.17 | 0.14 | 89 | 1013.4 |
| 20260502121830 | 52 | 334 | 1.0 | 5.0 | 0.07 | 0.15 | 0.12 | 90 | 1013.4 |
| 20260502120350 | 52 | 10 | 1.0 | 5.0 | 0.07 | 0.13 | 0.10 | 90 | 1013.1 |
| 20260502114834 | 52 | 295 | 2.0 | 8.0 | 0.07 | 0.12 | 0.09 | 90 | 1013.1 |
| 20260502113325 | 53 | 355 | 3.0 | 5.0 | 0.06 | 0.10 | 0.07 | 90 | 1013.5 |